1504375201.03,60592,20.75,73680.8,3.53,0.97,1.75,0,*4D
1504375202.26,60593,20.75,73680.8,3.55,1.13,1.89,0,*74
1504375203.48,60594,20.81,73686.8,3.55,1.25,1.89,0,*76
1504375204.72,60595,20.75,73680.5,3.55,1.29,2.01,0,*78
1504375205.95,60596,20.75,73684.3,3.55,1.43,2.13,0,*74
1504375207.19,60597,20.75,73682.5,3.55,1.55,2.17,0,*76
1504375208.45,60598,20.75,73688.5,3.57,1.51,2.17,0,*7F
1504375209.71,60599,20.75,73684.3,3.57,1.55,2.13,0,*7E
1504375210.97,60600,20.81,73688.0,3.57,1.51,2.05,0,*7E
1504375212.23,60601,20.75,73684.5,3.57,1.55,2.13,0,*7C
1504375213.49,60602,20.75,73684.0,3.57,1.63,2.13,0,*7A
1504375214.75,60603,20.75,73688.5,3.57,1.63,2.05,0,*7C
1504375216.01,60604,20.75,73688.5,3.57,1.67,2.13,0,*78
1504375217.25,60605,20.75,73690.3,3.57,1.75,2.13,0,*7A
1504375218.48,60606,20.75,73688.3,3.57,1.75,2.13,0,*79
1504375219.74,60607,20.75,73692.0,3.57,1.63,2.13,0,*7F
1504375220.99,60608,20.75,73690.8,3.57,1.51,1.89,0,*71
1504375222.24,60609,20.75,73690.3,3.57,1.51,1.89,0,*70
1504375223.47,60610,20.75,73688.0,3.57,1.41,1.63,0,*7D
1504375224.73,60611,20.75,73688.3,3.57,1.29,1.43,0,*70
1504375225.99,60612,20.75,73688.5,3.57,1.13,1.33,0,*7D
1504375227.22,60613,20.75,73690.3,3.57,0.71,1.05,0,*4C
1504375228.43,60614,20.75,73686.3,3.57,0.09,0.71,0,*46
1504375229.65,60615,20.75,73690.0,3.57,0.09,0.79,0,*4F
1504375230.89,60616,20.75,73688.8,3.57,0.33,0.95,0,*77
1504375232.13,60617,20.75,73688.3,3.57,0.55,0.95,0,*76
1504375233.38,60618,20.75,73688.5,3.57,0.47,0.71,0,*70
1504375234.59,60619,20.75,73684.0,3.57,0.43,0.59,0,*7F
1504375235.8,60620,20.75,73688.8,3.59,0.33,0.63,0,*75
1504375237.04,60621,20.75,73690.0,3.57,0.17,0.67,0,*78
1504375238.28,60622,20.75,73690.0,3.57,0.29,0.67,0,*76
1504375239.52,60623,20.75,73688.8,3.57,0.41,0.55,0,*78
1504375240.73,60624,20.75,73688.5,3.59,0.17,0.17,0,*74
1504375241.94,60625,20.75,73688.3,3.57,-0.15,-0.03,0,*4C
1504375243.14,60626,20.75,73692.3,3.57,-0.03,-0.03,0,*78
1504375244.39,60627,20.75,73688.0,3.57,0.21,0.21,0,*79
1504375245.63,60628,20.75,73688.3,3.57,0.47,0.41,0,*70
1504375246.82,60629,20.75,73690.0,3.59,0.71,0.43,0,*78
1504375248.02,60630,20.75,73688.3,3.59,0.71,0.43,0,*70
1504375249.26,60631,20.75,73688.3,3.57,0.79,0.67,0,*71
1504375250.51,60632,20.81,73692.5,3.57,0.91,0.79,0,*7B
1504375251.75,60633,20.75,73688.3,3.59,1.17,1.09,0,*7D
1504375253.0,60634,20.75,73688.3,3.57,1.25,1.25,0,*7B
1504375254.27,60635,20.75,73690.0,3.57,1.33,1.29,0,*71
1504375255.51,60636,20.75,73688.8,3.59,1.37,1.21,0,*70
1504375256.77,60637,20.75,73688.8,3.57,1.29,1.29,0,*78
1504375258.0,60638,20.75,73692.0,3.59,1.21,1.29,0,*71
1504375259.27,60639,20.75,73688.8,3.57,1.13,1.33,0,*74
1504375260.5,60640,20.75,73692.5,3.59,1.33,1.59,0,*7A
1504375261.76,60641,20.75,73690.5,3.57,1.33,1.51,0,*7D
1504375263.0,60642,20.75,73694.8,3.59,1.37,1.55,0,*70
1504375264.23,60643,20.75,73690.3,3.59,1.37,1.43,0,*76
1504375265.46,60644,20.75,73694.5,3.59,1.25,1.21,0,*76
1504375266.69,60645,20.75,73694.0,3.59,1.17,1.29,0,*7E
1504375267.93,60646,20.75,73688.3,3.59,1.29,1.37,0,*7F
1504375269.17,60647,20.75,73692.5,3.59,1.29,1.33,0,*7A
1504375270.4,60648,20.81,73696.5,3.59,1.21,1.17,0,*7B
1504375271.64,60649,20.75,73690.8,3.57,0.95,0.95,0,*71
1504375272.89,60650,20.75,73694.5,3.57,0.95,0.91,0,*7D
1504375274.09,60651,20.75,73690.5,3.59,0.97,0.75,0,*7A
1504375275.31,60652,20.75,73692.3,3.59,0.87,0.63,0,*7F
1504375276.5,60653,20.75,73690.8,3.59,0.75,0.43,0,*71
1504375277.72,60654,20.75,73690.5,3.59,0.75,0.37,0,*75
1504375278.93,60655,20.75,73688.3,3.59,0.75,0.37,0,*74
1504375280.14,60656,20.75,73692.5,3.59,0.75,0.37,0,*77
1504375281.38,60657,20.75,73688.0,3.57,0.71,0.41,0,*7D
1504375282.61,60658,20.75,73690.8,3.59,0.83,0.47,0,*77
1504375283.82,60659,20.75,73690.5,3.59,0.75,0.25,0,*7B
1504375285.03,60660,20.75,73690.5,3.59,0.75,0.13,0,*74
1504375286.24,60661,20.75,73688.3,3.57,0.67,0.05,0,*4F
1504375287.43,60662,20.75,73692.5,3.59,0.51,0.01,0,*43
1504375288.63,60663,20.75,73690.0,3.59,0.47,-0.15,0,*5D
1504375289.85,60664,20.75,73688.8,3.59,0.37,-0.23,0,*58
1504375291.04,60665,20.75,73688.0,3.59,0.37,-0.03,0,*6B
1504375292.26,60666,20.75,73690.0,3.59,0.47,0.21,0,*72
1504375293.47,60667,20.75,73692.0,3.59,0.51,0.25,0,*70
1504375294.67,60668,20.75,73690.3,3.57,0.43,-0.19,0,*50
1504375295.85,60669,20.75,73690.8,3.59,0.09,-0.41,0,*6C
1504375297.02,60670,20.75,73688.8,3.59,-0.15,-0.61,0,*76
1504375298.2,60671,20.75,73690.8,3.59,-0.11,-0.29,0,*7F
1504375299.4,60672,20.75,73684.5,3.57,0.09,-0.03,0,*5E
1504375300.61,60673,20.75,73686.3,3.59,0.33,0.33,0,*76
1504375301.81,60674,20.75,73690.3,3.59,0.37,0.33,0,*75
1504375303.01,60675,20.75,73692.8,3.59,0.47,0.43,0,*74
1504375304.23,60676,20.75,73694.3,3.59,0.55,0.71,0,*75
1504375305.47,60677,20.75,73694.5,3.61,0.55,0.25,0,*7E
1504375306.67,60678,20.75,73694.0,3.59,-0.49,-0.85,0,*7D
1504375307.85,60679,20.75,73692.3,3.59,-0.65,-0.77,0,*7F
1504375309.05,60680,20.75,73686.3,3.57,-0.45,-0.61,0,*72
1504375310.23,60681,20.75,73690.5,3.59,-0.29,-0.29,0,*7B
1504375311.43,60682,20.75,73692.8,3.57,-0.15,-0.03,0,*41
1504375312.62,60683,20.75,73688.8,3.59,0.01,0.21,0,*4B
1504375313.83,60684,20.75,73688.8,3.59,0.13,0.21,0,*7F
1504375315.03,60685,20.75,73692.0,3.57,0.05,0.09,0,*7D
1504375316.27,60686,20.75,73694.8,3.57,0.21,0.29,0,*7A
1504375317.48,60687,20.75,73692.0,3.59,0.13,0.25,0,*78
1504375318.67,60688,20.75,73688.5,3.59,0.09,0.25,0,*4C
1504375319.86,60689,20.75,73690.3,3.59,-0.03,0.33,0,*6D
1504375321.08,60690,20.75,73688.0,3.57,0.09,0.55,0,*4C
1504375322.29,60691,20.75,73688.3,3.59,0.25,0.71,0,*7B
1504375323.51,60692,20.75,73690.8,3.59,0.47,0.87,0,*75
1504375324.7,60693,20.75,73692.0,3.59,0.43,0.75,0,*7D
1504375325.91,60694,20.75,73690.8,3.59,0.25,0.71,0,*7E
1504375327.12,60695,20.75,73688.0,3.59,0.33,0.75,0,*7C
1504375328.31,60696,20.75,73686.0,3.59,0.09,0.63,0,*41
1504375329.53,60697,20.75,73686.0,3.59,-0.23,0.33,0,*50
1504375330.75,60698,20.75,73686.8,3.59,-0.27,0.33,0,*5B
1504375331.95,60699,20.75,73688.0,3.59,-0.15,0.59,0,*57
1504375333.17,60700,20.75,73688.0,3.61,0.05,0.91,0,*45
1504375334.41,60701,20.75,73690.0,3.61,0.41,1.21,0,*4E
1504375335.65,60702,20.75,73684.5,3.61,0.63,1.33,0,*4E
1504375336.9,60703,20.75,73688.8,3.61,0.55,1.09,0,*43
1504375338.11,60704,20.75,73692.0,3.61,0.37,0.97,0,*76
1504375339.35,60705,20.75,73684.0,3.61,0.29,1.13,0,*45
1504375340.59,60706,20.75,73690.5,3.61,0.67,1.37,0,*4A
1504375341.8,60707,20.75,73688.3,3.61,0.87,1.41,0,*44
1504375343.02,60708,20.75,73688.8,3.59,0.75,1.33,0,*48
1504375344.28,60709,20.75,73688.8,3.57,0.79,1.29,0,*40
1504375345.5,60710,20.75,73688.3,3.59,0.87,1.43,0,*4B
1504375346.71,60711,20.75,73688.8,3.59,0.75,1.29,0,*4B
1504375347.91,60712,20.75,73688.8,3.63,0.91,1.41,0,*45
1504375349.1,60713,20.75,73688.8,3.61,1.01,1.41,0,*7E
1504375350.29,60714,20.75,73688.0,3.61,1.01,1.41,0,*79
1504375351.55,60715,20.75,73688.5,3.61,1.13,1.47,0,*7D
1504375352.81,60716,20.75,73694.5,3.61,1.33,1.51,0,*7B
1504375354.06,60717,20.75,73692.3,3.61,1.33,1.59,0,*72
1504375355.31,60718,20.75,73692.3,3.61,1.25,1.47,0,*75
1504375356.56,60719,20.75,73692.3,3.61,1.21,1.51,0,*77
1504375357.82,60720,20.75,73692.3,3.61,1.09,1.47,0,*70
1504375359.03,60721,20.75,73694.5,3.61,0.97,1.47,0,*47
1504375360.23,60722,20.75,73692.5,3.63,1.01,1.47,0,*78
1504375361.49,60723,20.75,73694.0,3.61,1.13,1.47,0,*78
1504375362.72,60724,20.75,73694.0,3.63,1.13,1.47,0,*7D
1504375363.97,60725,20.75,73688.5,3.61,1.09,1.47,0,*75
1504375365.2,60726,20.75,73694.3,3.63,1.13,1.47,0,*7F
1504375366.46,60727,20.75,73690.5,3.61,1.33,1.51,0,*79
1504375367.68,60728,20.75,73690.0,3.61,1.41,1.51,0,*73
1504375368.88,60729,20.75,73688.8,3.63,1.33,1.41,0,*74
1504375370.11,60730,20.75,73690.5,3.61,1.33,1.41,0,*7E
1504375371.33,60731,20.75,73692.0,3.63,1.47,1.51,0,*7F
1504375372.55,60732,20.75,73690.8,3.63,1.47,1.51,0,*7C
1504375373.8,60733,20.75,73692.5,3.61,1.47,1.47,0,*78
1504375375.04,60734,20.75,73692.3,3.61,1.47,1.47,0,*7F
1504375376.27,60735,20.75,73692.8,3.63,1.51,1.37,0,*7C
1504375377.47,60736,20.75,73688.8,3.63,1.41,1.25,0,*7D
1504375378.72,60737,20.75,73692.3,3.61,1.25,1.21,0,*78
1504375379.95,60738,20.75,73692.3,3.63,1.09,1.13,0,*7A
1504375381.13,60739,20.75,73690.5,3.63,1.01,1.01,0,*70
1504375382.33,60740,20.75,73692.3,3.63,0.91,1.01,0,*46
1504375383.53,60741,20.75,73690.8,3.63,0.97,1.13,0,*42
1504375384.75,60742,20.75,73694.5,3.63,0.87,0.91,0,*7B
1504375385.96,60743,20.75,73694.5,3.63,0.37,0.67,0,*78
1504375387.17,60744,20.75,73694.5,3.63,0.17,0.47,0,*7F
1504375388.37,60745,20.75,73692.5,3.63,-0.45,0.17,0,*51
1504375389.57,60746,20.75,73690.0,3.61,-0.57,0.05,0,*60
1504375390.74,60747,20.75,73694.8,3.63,-0.49,0.05,0,*6C
1504375391.94,60748,20.75,73690.0,3.63,-0.19,0.17,0,*55
1504375393.12,60749,20.75,73692.3,3.63,0.05,0.41,0,*47
1504375394.36,60750,20.75,73690.8,3.61,0.41,0.51,0,*7C
1504375395.58,60751,20.75,73692.3,3.63,0.41,0.47,0,*78
1504375396.82,60752,20.75,73692.8,3.61,0.25,0.37,0,*7C
1504375398.03,60753,20.75,73694.5,3.63,0.25,0.47,0,*78
1504375399.27,60754,20.75,73690.5,3.61,0.25,0.47,0,*7D
1504375400.51,60755,20.75,73694.5,3.61,0.25,0.41,0,*7A
1504375401.72,60756,20.75,73692.8,3.63,0.29,0.63,0,*77
1504375402.93,60757,20.75,73692.5,3.63,0.29,0.51,0,*77
1504375404.17,60758,20.75,73694.0,3.61,0.37,0.41,0,*74
1504375405.4,60759,20.75,73694.5,3.61,0.17,0.29,0,*79
1504375406.59,60760,20.75,73694.5,3.63,0.13,0.05,0,*4B
1504375407.8,60761,20.75,73692.3,3.61,0.13,-0.57,0,*52
1504375409.01,60762,20.75,73694.0,3.63,-0.73,-1.13,0,*49
1504375410.25,60763,20.75,73694.3,3.63,-1.13,-1.43,0,*7A
1504375411.47,60764,20.75,73690.3,3.61,-1.33,-1.55,0,*7A
1504375412.69,60765,20.75,73694.0,3.63,-1.33,-1.35,0,*7F
1504375413.93,60766,20.75,73692.8,3.61,-1.33,-1.35,0,*7E
1504375415.17,60767,20.75,73692.8,3.61,-1.33,-1.47,0,*7A
1504375416.38,60768,20.75,73694.3,3.61,-1.59,-1.79,0,*74
1504375417.59,60769,20.75,73688.3,3.59,-1.75,-1.83,0,*75
1504375418.81,60770,20.75,73690.3,3.57,-1.79,-1.75,0,*76
1504375420.02,60771,20.75,73688.0,3.59,-1.47,-1.59,0,*7A
1504375421.24,60772,20.75,73688.8,3.59,-1.13,-1.29,0,*7F
1504375422.5,60773,20.75,73686.8,3.57,-0.89,-1.05,0,*4C
1504375423.74,60774,20.75,73690.0,3.59,-0.97,-1.01,0,*4E
1504375424.96,60775,20.75,73684.8,3.57,-1.17,-1.29,0,*72
1504375426.21,60776,20.75,73690.3,3.57,-1.67,-1.87,0,*72
1504375427.42,60777,20.75,73690.3,3.57,-1.75,-1.75,0,*7D
1504375428.62,60778,20.75,73690.3,3.59,-1.71,-1.63,0,*7F
1504375429.84,60779,20.75,73690.0,3.57,-1.67,-1.63,0,*77
1504375431.05,60780,20.75,73686.5,3.55,-1.51,-1.43,0,*74
1504375432.29,60781,20.75,73686.8,3.57,-1.39,-1.33,0,*7E
1504375433.53,60782,20.75,73688.5,3.53,-1.25,-1.13,0,*76
1504375434.8,60783,20.75,73686.3,3.53,-1.05,-0.97,0,*48
1504375436.03,60784,20.75,73684.0,3.55,-0.89,-0.89,0,*73
1504375437.28,60785,20.75,73686.0,3.53,-0.85,-0.93,0,*73
1504375438.52,60786,20.75,73688.0,3.53,-0.89,-0.81,0,*7F
1504375439.73,60787,20.75,73688.3,3.53,-0.57,-0.57,0,*76
1504375440.93,60788,20.75,73684.5,3.53,-0.69,-0.61,0,*71
1504375442.14,60789,20.75,73682.3,3.53,-0.57,-0.29,0,*71
1504375443.38,60790,20.75,73686.8,3.53,-0.23,-0.11,0,*71
1504375444.58,60791,20.75,73686.3,3.53,-0.29,-0.07,0,*4D
1504375445.8,60792,20.75,73686.8,3.51,0.13,0.25,0,*75
1504375447.01,60793,20.75,73688.3,3.51,0.37,0.37,0,*71
1504375448.23,60794,20.75,73688.0,3.51,0.63,0.51,0,*77
1504375449.44,60795,20.75,73688.8,3.51,0.29,0.25,0,*7B
1504375450.67,60796,20.75,73690.0,3.51,0.79,0.75,0,*78
1504375451.9,60797,20.75,73692.3,3.51,1.09,0.67,0,*4C
1504375453.12,60798,20.75,73690.5,3.51,0.87,0.41,0,*70
1504375454.28,60799,20.75,73688.3,3.51,0.43,0.01,0,*4D
1504375455.49,60800,20.75,73690.5,3.51,0.37,0.13,0,*72
1504375456.71,60801,20.75,73684.3,3.49,0.33,-0.07,0,*66
1504375457.91,60802,20.75,73688.3,3.51,0.29,-0.11,0,*50
1504375459.11,60803,20.75,73688.8,3.51,0.37,-0.07,0,*69
1504375460.31,60804,20.75,73690.8,3.51,0.17,-0.37,0,*5F
1504375461.51,60805,20.75,73688.5,3.51,-0.37,-0.85,0,*78
1504375462.69,60806,20.75,73690.3,3.51,-0.19,-0.61,0,*7D
1504375463.86,60807,20.75,73688.8,3.51,0.01,-0.29,0,*64
1504375465.04,60808,20.75,73688.8,3.51,-0.19,-0.61,0,*73
1504375466.23,60809,20.75,73692.3,3.51,-0.81,-1.21,0,*46
1504375467.44,60810,20.75,73688.5,3.51,-0.69,-1.13,0,*49
1504375468.64,60811,20.75,73692.5,3.51,-0.57,-0.97,0,*78
1504375469.85,60812,20.75,73690.5,3.51,-0.29,-0.85,0,*71
1504375471.07,60813,20.75,73686.3,3.51,-0.23,-0.85,0,*7A
1504375472.31,60814,20.75,73686.5,3.49,-0.11,-0.97,0,*76
1504375473.54,60815,20.75,73690.3,3.49,-0.33,-1.01,0,*49
1504375474.72,60816,20.75,73688.8,3.51,-0.07,-0.81,0,*4D
1504375475.9,60817,20.75,73690.3,3.51,-0.29,-0.81,0,*70
1504375477.08,60818,20.75,73688.0,3.51,-0.07,-0.49,0,*47
1504375478.25,60819,20.75,73688.8,3.51,0.05,-0.45,0,*65
1504375479.45,60820,20.75,73688.8,3.51,0.13,-0.37,0,*5D
1504375480.66,60821,20.75,73690.3,3.49,-0.15,-1.17,0,*4D
1504375481.85,60822,20.75,73690.8,3.51,-0.69,-1.59,0,*46
1504375483.05,60823,20.75,73688.8,3.51,-0.33,-0.97,0,*7B
1504375484.22,60824,20.75,73690.5,3.51,0.01,-0.69,0,*61
1504375485.42,60825,20.75,73694.3,3.49,-0.03,-0.61,0,*4E
1504375486.65,60826,20.75,73690.0,3.49,0.25,-0.33,0,*53
1504375487.87,60827,20.75,73692.5,3.51,0.37,-0.23,0,*59
1504375489.1,60828,20.75,73690.5,3.49,-0.15,-0.97,0,*7D
1504375490.29,60829,20.75,73686.0,3.51,-0.73,-1.55,0,*4A
1504375491.54,60830,20.75,73686.3,3.49,-0.89,-1.71,0,*48
1504375492.78,60831,20.75,73684.5,3.49,-1.13,-1.75,0,*7F
1504375494.01,60832,20.75,73684.0,3.49,-1.17,-1.63,0,*7F
1504375495.28,60833,20.75,73686.3,3.45,-1.05,-1.43,0,*73
1504375496.52,60834,20.75,73686.0,3.45,-0.89,-1.17,0,*40
1504375497.74,60835,20.75,73686.3,3.45,-0.53,-0.89,0,*70
1504375498.95,60836,20.75,73684.8,3.45,-0.45,-0.77,0,*75
1504375500.16,60837,20.75,73684.0,3.45,-0.37,-0.77,0,*71
1504375501.37,60838,20.75,73684.8,3.45,-0.15,-0.19,0,*76
1504375502.58,60839,20.75,73688.3,3.45,-0.19,-0.07,0,*44
1504375503.78,60840,20.75,73688.5,3.45,-0.45,-0.45,0,*75
1504375505.0,60841,20.75,73694.0,3.45,-0.53,-0.41,0,*77
1504375506.23,60842,20.75,73692.5,3.49,-0.37,-0.27,0,*7A
1504375507.44,60843,20.75,73694.0,3.49,-0.41,-0.65,0,*7C
1504375508.7,60844,20.75,73690.3,3.49,-0.85,-1.01,0,*40
1504375509.96,60845,20.75,73690.0,3.49,-0.85,-0.97,0,*7F
1504375511.2,60846,20.75,73690.3,3.49,-0.73,-0.89,0,*7A
1504375512.46,60847,20.75,73694.8,3.49,-0.85,-1.01,0,*43
1504375513.72,60848,20.75,73688.3,3.49,-1.01,-1.13,0,*72
1504375514.99,60849,20.75,73692.5,3.49,-1.35,-1.35,0,*70
1504375516.24,60850,20.75,73692.3,3.49,-1.47,-1.29,0,*70
1504375517.46,60851,20.75,73692.5,3.49,-1.63,-1.51,0,*78
1504375518.65,60852,20.75,73690.8,3.51,-1.67,-1.55,0,*72
1504375519.92,60853,20.75,73690.5,3.49,-1.99,-1.87,0,*74
1504375521.14,60854,20.75,73688.5,3.51,-1.91,-1.67,0,*7C
1504375522.39,60855,20.75,73688.3,3.49,-1.99,-1.71,0,*7B
1504375523.64,60856,20.75,73690.5,3.49,-1.75,-1.47,0,*7F
1504375524.88,60857,20.75,73688.8,3.49,-1.59,-1.35,0,*75
1504375526.12,60858,20.75,73688.5,3.49,-1.87,-1.51,0,*7B
1504375527.37,60859,20.75,73690.3,3.49,-1.87,-1.51,0,*7A
1504375528.64,60860,20.75,73690.3,3.49,-1.83,-1.47,0,*73
1504375529.92,60861,20.75,73694.0,3.49,-1.99,-1.47,0,*79
1504375531.16,60862,20.75,73694.0,3.49,-1.95,-1.51,0,*71
1504375532.4,60863,20.75,73690.5,3.49,-1.95,-1.51,0,*70
1504375533.64,60864,20.75,73690.8,3.49,-2.35,-1.95,0,*76
1504375534.88,60865,20.75,73688.0,3.45,-2.43,-2.03,0,*76
1504375536.13,60866,20.75,73690.8,3.45,-1.99,-1.51,0,*75
1504375537.36,60867,20.75,73690.5,3.43,-1.43,-0.93,0,*4A
1504375538.59,60868,20.75,73690.5,3.45,-0.93,-0.57,0,*77
1504375539.84,60869,20.75,73688.8,3.45,-0.93,-1.01,0,*44
1504375541.06,60870,20.75,73690.3,3.45,-1.79,-1.63,0,*7D
1504375542.3,60871,20.75,73690.5,3.45,-1.91,-1.55,0,*7F
1504375543.53,60872,20.75,73686.5,3.45,-1.79,-1.13,0,*78
1504375544.74,60873,20.75,73690.5,3.45,-1.55,-1.29,0,*7E
1504375545.99,60874,20.75,73688.8,3.45,-2.03,-1.63,0,*77
1504375547.21,60875,20.75,73688.8,3.43,-1.99,-1.29,0,*7E
1504375548.42,60876,20.75,73688.8,3.43,-1.01,-0.69,0,*49
1504375549.6,60877,20.75,73690.5,3.43,-0.69,-0.81,0,*71
1504375550.86,60878,20.75,73688.0,3.45,-1.05,-1.13,0,*79
1504375552.1,60879,20.75,73688.3,3.45,-1.55,-1.39,0,*75
1504375553.35,60880,20.75,73688.3,3.43,-1.43,-1.05,0,*7D
1504375554.56,60881,20.75,73692.5,3.43,-1.21,-1.01,0,*7C
1504375555.81,60882,20.75,73690.8,3.45,-1.29,-1.05,0,*75
1504375557.03,60883,20.75,73690.8,3.45,-1.75,-1.67,0,*79
1504375558.27,60884,20.75,73690.8,3.43,-2.03,-1.87,0,*74
1504375559.49,60885,20.75,73688.5,3.43,-1.99,-1.67,0,*7B
1504375560.68,60886,20.75,73688.8,3.43,-1.79,-1.55,0,*77
1504375561.89,60887,20.75,73690.5,3.45,-1.79,-1.51,0,*74
1504375563.11,60888,20.75,73688.8,3.43,-1.87,-1.33,0,*78
1504375564.32,60889,20.75,73688.5,3.43,-1.87,-1.29,0,*72
1504375565.54,60890,20.75,73694.8,3.43,-1.87,-1.29,0,*7A
1504375566.78,60891,20.75,73688.8,3.43,-1.91,-1.39,0,*7D
1504375568.02,60892,20.75,73690.5,3.41,-1.95,-1.25,0,*75
1504375569.27,60893,20.75,73690.5,3.41,-1.71,-1.35,0,*7F
1504375570.52,60894,20.75,73692.3,3.41,-2.07,-1.71,0,*7A
1504375571.76,60895,20.75,73692.0,3.41,-2.31,-1.95,0,*74
1504375573.0,60896,20.75,73688.3,3.41,-2.31,-1.95,0,*77
1504375574.24,60897,20.75,73688.8,3.41,-2.43,-2.11,0,*7C
1504375575.45,60898,20.75,73690.0,3.39,-2.31,-1.91,0,*72
1504375576.65,60899,20.75,73688.0,3.39,-2.31,-1.71,0,*7D
1504375577.9,60900,20.75,73688.5,3.41,-2.11,-1.67,0,*76
1504375579.14,60901,20.75,73690.0,3.41,-1.95,-1.59,0,*75
1504375580.36,60902,20.75,73690.5,3.41,-1.79,-1.55,0,*78
1504375581.57,60903,20.75,73690.8,3.39,-1.79,-1.35,0,*70
1504375582.82,60904,20.75,73688.3,3.41,-2.07,-1.55,0,*74
1504375584.06,60905,20.75,73690.3,3.39,-2.03,-1.47,0,*7D
1504375585.25,60906,20.75,73690.3,3.39,-2.19,-1.71,0,*70
1504375586.44,60907,20.75,73690.5,3.39,-2.83,-2.43,0,*70
1504375587.65,60908,20.75,73694.0,3.39,-2.67,-2.31,0,*70
1504375588.87,60909,20.75,73694.5,3.39,-2.47,-2.19,0,*79
1504375590.12,60910,20.75,73694.0,3.41,-2.35,-2.07,0,*74
1504375591.33,60911,20.75,73688.3,3.37,-2.39,-2.15,0,*7B
1504375592.57,60912,20.75,73684.3,3.37,-2.91,-2.59,0,*72
1504375593.78,60913,20.75,73690.3,3.35,-2.71,-2.39,0,*79
1504375595.02,60914,20.75,73688.5,3.37,-2.91,-2.63,0,*7D
1504375596.22,60915,20.75,73688.3,3.35,-3.39,-3.11,0,*79
1504375597.41,60916,20.75,73686.5,3.35,-3.23,-2.99,0,*70
1504375598.62,60917,20.75,73686.3,3.31,-3.07,-2.79,0,*7D
1504375599.87,60918,20.75,73686.0,3.33,-3.03,-2.63,0,*7F
1504375601.12,60919,20.75,73684.0,3.33,-2.87,-2.51,0,*72
1504375602.33,60920,20.75,73684.3,3.33,-2.87,-2.43,0,*7B
1504375603.57,60921,20.75,73686.0,3.31,-2.91,-2.47,0,*7B
1504375604.81,60922,20.75,73680.5,3.31,-2.91,-2.47,0,*78
1504375606.05,60923,20.75,73684.8,3.31,-3.19,-2.67,0,*7A
1504375607.29,60924,20.75,73684.5,3.31,-3.07,-2.67,0,*72
1504375608.52,60925,20.75,73686.8,3.31,-2.71,-2.43,0,*75
1504375609.74,60926,20.75,73690.5,3.29,-2.71,-2.31,0,*7A
1504375610.96,60927,20.75,73686.5,3.29,-2.55,-2.19,0,*77
1504375612.18,60928,20.75,73684.8,3.29,-2.71,-2.23,0,*77
1504375613.37,60929,20.75,73686.3,3.29,-2.79,-2.23,0,*7E
1504375614.59,60930,20.75,73686.5,3.29,-2.99,-2.59,0,*75
1504375615.8,60931,20.75,73686.5,3.29,-2.87,-2.59,0,*7B
1504375617.02,60932,20.75,73690.5,3.29,-2.71,-2.43,0,*7A
1504375618.26,60933,20.75,73690.5,3.27,-2.63,-2.23,0,*70
1504375619.47,60934,20.75,73686.8,3.29,-2.59,-2.19,0,*79
1504375620.71,60935,20.75,73688.8,3.27,-2.71,-2.27,0,*71
1504375621.94,60936,20.75,73688.5,3.27,-2.51,-2.27,0,*70
1504375623.18,60937,20.75,73686.3,3.27,-2.39,-1.99,0,*79
1504375624.39,60938,20.75,73686.3,3.29,-2.23,-1.83,0,*78
1504375625.63,60939,20.75,73684.0,3.27,-1.99,-1.63,0,*7B
1504375626.87,60940,20.75,73688.8,3.27,-1.87,-1.51,0,*7B
1504375628.11,60941,20.75,73686.3,3.27,-1.83,-1.51,0,*7E
1504375629.32,60942,20.75,73686.3,3.25,-1.71,-1.47,0,*75
1504375630.55,60943,20.75,73692.0,3.25,-1.13,-0.97,0,*4C
1504375631.8,60944,20.75,73690.5,3.27,-1.09,-0.97,0,*42
1504375633.05,60945,20.75,73690.5,3.27,-1.09,-0.97,0,*43
1504375634.3,60946,20.75,73686.0,3.27,-0.97,-0.85,0,*75
1504375635.54,60947,20.75,73688.8,3.27,-1.21,-1.13,0,*76
1504375636.75,60948,20.75,73688.8,3.29,-1.35,-1.33,0,*70
1504375637.97,60949,20.75,73688.8,3.27,-1.33,-1.21,0,*7A
1504375639.22,60950,20.75,73686.3,3.27,-1.13,-0.89,0,*43
1504375640.45,60951,20.75,73688.3,3.27,-0.85,-0.73,0,*79
1504375641.66,60952,20.75,73690.5,3.27,-0.65,-0.73,0,*74
1504375642.87,60953,20.75,73684.0,3.27,-0.73,-0.73,0,*72
1504375644.09,60954,20.75,73684.0,3.27,-0.85,-0.77,0,*78
1504375645.33,60955,20.75,73684.5,3.27,-1.33,-1.13,0,*76
1504375646.57,60956,20.75,73684.0,3.27,-1.21,-1.01,0,*75
1504375647.8,60957,20.75,73686.0,3.27,-1.13,-0.77,0,*45
1504375649.04,60958,20.75,73686.8,3.27,-1.13,-0.57,0,*48
1504375650.27,60959,20.75,73682.3,3.27,-0.89,-0.33,0,*79
1504375651.44,60960,20.75,73684.8,3.29,-0.45,0.01,0,*61
1504375652.66,60961,20.75,73688.0,3.27,-0.23,0.09,0,*66
1504375653.87,60962,20.75,73686.8,3.27,-0.15,0.13,0,*5B
1504375655.09,60963,20.75,73684.5,3.27,-0.03,0.37,0,*6B
1504375656.32,60964,20.75,73686.8,3.27,0.13,0.51,0,*70
1504375657.54,60965,20.75,73684.5,3.29,0.25,0.63,0,*7B
1504375658.78,60966,20.75,73686.3,3.27,0.29,0.47,0,*7C
1504375660.01,60967,20.75,73684.8,3.27,0.17,0.41,0,*76
1504375661.22,60968,20.75,73686.3,3.27,0.09,0.47,0,*40
1504375662.43,60969,20.75,73684.0,3.27,0.09,0.51,0,*46
1504375663.67,60970,20.75,73686.8,3.27,0.17,0.51,0,*71
1504375664.86,60971,20.75,73686.8,3.29,0.09,0.59,0,*49
1504375666.1,60972,20.75,73686.5,3.27,0.25,0.75,0,*74
1504375667.29,60973,20.75,73684.5,3.29,0.41,0.97,0,*75
1504375668.5,60974,20.75,73686.5,3.27,0.51,1.01,0,*43
1504375669.7,60975,20.75,73688.0,3.29,0.75,1.05,0,*4E
1504375670.92,60976,20.75,73686.8,3.29,0.83,1.13,0,*43
1504375672.16,60977,20.75,73686.8,3.27,0.87,1.25,0,*4D
1504375673.41,60978,20.75,73684.3,3.27,0.95,1.33,0,*46
1504375674.65,60979,20.75,73684.0,3.27,0.95,1.43,0,*40
1504375675.84,60980,20.75,73688.8,3.29,0.97,1.47,0,*4E
1504375677.01,60981,20.75,73684.5,3.29,0.97,1.41,0,*49
1504375678.21,60982,20.75,73686.5,3.29,0.97,1.47,0,*4C
1504375679.44,60983,20.75,73688.5,3.29,0.91,1.51,0,*4C
1504375680.64,60984,20.75,73690.3,3.29,0.97,1.51,0,*4D
1504375681.84,60985,20.75,73690.8,3.29,1.01,1.59,0,*7A
1504375683.04,60986,20.75,73688.5,3.29,1.05,1.63,0,*74
1504375684.28,60987,20.75,73688.5,3.29,1.13,1.63,0,*72
1504375685.49,60988,20.75,73688.0,3.29,1.17,1.75,0,*7E
1504375686.7,60989,20.75,73690.0,3.29,1.29,1.79,0,*7E
1504375687.94,60990,20.75,73686.8,3.29,1.29,1.85,0,*75
1504375689.16,60991,20.75,73690.0,3.29,1.37,1.79,0,*78
1504375690.39,60992,20.75,73686.3,3.31,1.41,1.85,0,*70
1504375691.61,60993,20.75,73684.5,3.31,1.41,1.85,0,*71
1504375692.86,60994,20.75,73690.0,3.31,1.51,1.85,0,*77
1504375694.09,60995,20.75,73688.0,3.31,1.47,1.79,0,*72
1504375695.34,60996,20.75,73686.5,3.31,1.37,1.71,0,*7E
1504375696.59,60997,20.75,73688.8,3.31,1.25,1.59,0,*76
1504375697.84,60998,20.75,73686.5,3.31,1.13,1.51,0,*74
1504375699.1,60999,20.75,73686.8,3.33,1.17,1.55,0,*77
1504375700.35,61000,20.75,73686.0,3.31,1.17,1.59,0,*71
1504375701.59,61001,20.75,73684.0,3.33,1.43,1.79,0,*71
1504375702.81,61002,20.75,73690.0,3.31,1.47,1.79,0,*74
1504375704.03,61003,20.75,73686.8,3.31,1.41,1.71,0,*7B
1504375705.25,61004,20.75,73684.8,3.31,1.41,1.59,0,*76
1504375706.47,61005,20.75,73688.3,3.31,1.41,1.51,0,*7F
1504375707.7,61006,20.75,73688.0,3.33,1.29,1.41,0,*71
1504375708.97,61007,20.75,73686.0,3.33,1.17,1.21,0,*7B
1504375710.16,61008,20.75,73686.5,3.31,1.01,0.97,0,*4D
1504375711.41,61009,20.75,73690.3,3.33,0.79,0.79,0,*70
1504375712.66,61010,20.75,73686.0,3.33,0.47,0.55,0,*7B
1504375713.86,61011,20.75,73688.8,3.33,0.09,0.43,0,*47
1504375715.09,61012,20.75,73684.8,3.31,0.13,0.41,0,*7F
1504375716.32,61013,20.75,73686.8,3.31,0.17,0.13,0,*7D
1504375717.53,61014,20.75,73686.3,3.33,-0.15,-0.15,0,*7C
1504375718.78,61015,20.75,73686.8,3.31,-0.23,-0.23,0,*7F
1504375720.0,61016,20.75,73686.3,3.33,-0.37,-0.15,0,*7E
1504375721.23,61017,20.75,73684.0,3.35,-0.27,-0.23,0,*7D
1504375722.46,61018,20.75,73684.8,3.33,-0.27,-0.29,0,*7E
1504375723.68,61019,20.75,73690.3,3.33,-0.29,-0.41,0,*7F
1504375724.88,61020,20.75,73684.5,3.33,-0.49,-0.77,0,*76